Location: Coffee Creek Observatory
(38.8077°N, 94.7179°W)
Time: 19:16:17
(UTC-05:00)

Amateur Radio Satellites - All Passes

Search period start: 28 July 2016 18:46
Search period end: 29 July 2016 18:46
Location: Coffee Creek Observatory, 38.8077°N, 94.7179°W

Satellite Date Start Highest point End Downlink Frequencies (MHz)
Time Altitude Azimuth
LilacSat-2 28 Jul 18:54:00 18:57:53 82° 259° (W) 19:01:47 437.200
CANX-2 28 Jul 19:08:36 19:09:17 10° 63° (ENE) 19:09:58 2200.000
NOAA 18 28 Jul 19:10:15 19:15:42 62° 258° (WSW) 19:21:13 137.9125
BEESAT 3 28 Jul 19:12:35 19:16:21 47° 305° (NW) 19:20:11 437.485
BRITE-PL 28 Jul 19:14:28 19:17:59 27° 264° (W) 19:21:33 437.365/2234.400
CUTE 1.7 + AOD 2 28 Jul 19:20:28 19:22:18 13° 65° (ENE) 19:24:08 437.475
PCSat 28 Jul 19:21:08 19:26:25 57° 114° (ESE) 19:31:45 145.827
BEESAT 2 28 Jul 19:21:47 19:25:43 74° 302° (WNW) 19:29:42 435.950
RS-15 28 Jul 19:25:21 19:30:53 14° 265° (W) 19:36:25 29.354- 29.394
HO-68 28 Jul 19:26:27 19:32:41 33° 63° (ENE) 19:38:55 435.675
Cubesat XI-IV 28 Jul 19:38:01 19:42:52 34° 263° (W) 19:47:45 437.490
PHONESAT 2.4 28 Jul 19:38:49 19:41:54 61° 5° (N) 19:44:57 2401.200-2431.200
CINEMA 3 28 Jul 19:51:12 19:55:20 36° 71° (ENE) 19:59:41 145.822/145.860
DOVE 4 28 Jul 19:51:42 19:55:55 61° 260° (W) 20:00:24 437.250
O/OREOS (USA 219) 28 Jul 19:54:27 19:57:15 17° 100° (E) 20:00:03 437.305
SEEDS 28 Jul 19:55:01 19:58:13 21° 69° (ENE) 20:01:26 437.485
CUBESAT XI-V 28 Jul 19:55:56 19:58:49 17° 295° (WNW) 20:01:41 437.345
AIST 2 28 Jul 20:01:31 20:02:52 11° 108° (ESE) 20:04:13 435.215
CUTE-I 28 Jul 20:02:15 20:06:13 21° 267° (W) 20:10:12 437.470
COMPASS 1 28 Jul 20:03:59 20:06:54 19° 68° (ENE) 20:09:48 437.405
GOMX 1 28 Jul 20:09:08 20:11:50 17° 268° (W) 20:14:35 467.674
ISS 28 Jul 20:18:11 20:20:33 19° 131° (SE) 20:22:56 145.825
ZACube-1 28 Jul 20:22:25 20:22:38 10° 62° (ENE) 20:22:52 437.345
UWE-3 28 Jul 20:22:47 20:25:41 17° 65° (ENE) 20:28:36 435.000/436.395/437.385
STRAND 1 28 Jul 20:26:05 20:31:08 59° 101° (E) 20:36:09 437.568
Cosmos 2491 28 Jul 20:26:30 20:31:02 15° 77° (ENE) 20:35:32 435.465 / 435.565
AAUSAT CUBESAT 2 28 Jul 20:29:51 20:33:25 28° 71° (ENE) 20:36:59 437.432
CANX-2 28 Jul 20:40:17 20:44:33 69° 259° (W) 20:48:48 2200.000
CUBEBUG 2 28 Jul 20:46:46 20:51:05 42° 72° (ENE) 20:55:33 437.445
CUTE 1.7 + AOD 2 28 Jul 20:53:28 20:57:39 55° 260° (W) 21:01:51 437.475
YUBILEINY 28 Jul 20:56:26 21:05:01 52° 77° (ENE) 21:13:30 435.215
Oscar 11 28 Jul 20:57:07 21:00:36 24° 69° (ENE) 21:04:05 145.826/435.025
PCSat 28 Jul 21:06:05 21:10:11 22° 312° (NW) 21:14:19 145.827
HO-68 28 Jul 21:13:17 21:20:08 47° 260° (W) 21:27:02 435.675
PHONESAT 2.4 28 Jul 21:15:22 21:18:25 58° 200° (SSW) 21:21:27 2401.200-2431.200
CINEMA 3 28 Jul 21:29:14 21:32:36 20° 268° (W) 21:36:05 145.822/145.860
SEEDS 28 Jul 21:30:02 21:33:44 29° 263° (W) 21:37:28 437.485
O/OREOS (USA 219) 28 Jul 21:32:03 21:36:16 41° 296° (WNW) 21:40:31 437.305
Cosmos 2504 28 Jul 21:35:29 21:42:17 29° 69° (ENE) 21:48:39 435.465 / 435.565
AIST 2 28 Jul 21:36:47 21:40:49 58° 304° (NW) 21:44:55 435.215
COMPASS 1 28 Jul 21:38:24 21:42:12 33° 263° (W) 21:46:01 437.405
AO-85 28 Jul 21:41:27 21:43:43 14° 41° (NE) 21:45:54 145.980
M-CUBED/EXP-1 PRIME 28 Jul 21:46:00 21:49:28 34° 65° (ENE) 21:53:12 437.505
FUNcube-1 28 Jul 21:51:44 21:56:15 89° 91° (E) 22:00:52 145.935
ZACube-1 28 Jul 21:53:39 21:58:12 82° 259° (WSW) 22:02:49 437.345
ISS 28 Jul 21:53:40 21:56:46 41° 327° (NNW) 21:59:53 145.825
UWE-3 28 Jul 21:57:17 22:01:41 48° 261° (W) 22:06:13 435.000/436.395/437.385
PRISM 28 Jul 22:02:42 22:06:49 84° 103° (ESE) 22:10:55 437.425
AAUSAT CUBESAT 2 28 Jul 22:05:41 22:08:52 21° 265° (W) 22:12:05 437.432
STRAND 1 28 Jul 22:06:42 22:09:48 16° 297° (WNW) 22:12:53 437.568
AUBIESAT-1 28 Jul 22:10:14 22:13:57 54° 69° (ENE) 22:18:02 437.475
DELFI C3 28 Jul 22:12:24 22:16:22 72° 76° (ENE) 22:20:20 145.870
Cosmos 2491 28 Jul 22:17:46 22:26:28 87° 96° (E) 22:35:14 435.465 / 435.565
CUBEBUG 2 28 Jul 22:24:47 22:27:54 18° 268° (W) 22:31:04 437.445
Oscar 11 28 Jul 22:32:51 22:36:35 28° 264° (W) 22:40:21 145.826/435.025
ANTELSAT 28 Jul 22:44:26 22:47:48 20° 93° (E) 22:51:04 437.575/2403.000
HUMSAT D 28 Jul 22:52:45 22:57:03 82° 258° (WSW) 23:01:23 437.325/437.525
PHONESAT 2.4 28 Jul 22:53:06 22:54:30 12° 214° (SW) 22:55:53 2401.200-2431.200
YUBILEINY 28 Jul 22:53:52 23:01:23 33° 276° (W) 23:08:53 435.215
50 SAT 28 Jul 23:08:19 23:09:25 11° 66° (ENE) 23:10:30 437.505
DX 1 28 Jul 23:13:02 23:14:22 11° 62° (ENE) 23:15:42 434.975-435.025
AISAT 28 Jul 23:17:52 23:20:56 19° 66° (ENE) 23:24:00 437.250
AO-85 28 Jul 23:20:27 23:24:46 71° 242° (WSW) 23:28:44 145.980
M-CUBED/EXP-1 PRIME 28 Jul 23:21:43 23:24:10 16° 263° (W) 23:26:44 437.505
UKube-1 28 Jul 23:23:08 23:24:32 11° 63° (ENE) 23:25:56 .
TIGRISAT 28 Jul 23:24:41 23:29:13 51° 99° (E) 23:33:35 435.000
Cosmos 2504 28 Jul 23:28:18 23:36:02 53° 270° (W) 23:43:14 435.465 / 435.565
ISS 28 Jul 23:32:39 23:33:53 12° 345° (NNW) 23:35:08 145.825
UNISAT 6 28 Jul 23:41:37 23:46:16 86° 99° (E) 23:50:47 437.425
QB50P2 28 Jul 23:45:38 23:47:50 14° 92° (E) 23:50:00 145.880/145.840
AUBIESAT-1 28 Jul 23:48:10 23:48:52 10° 266° (W) 23:49:34 437.475
POLYITAN 1 28 Jul 23:48:13 23:50:29 14° 92° (E) 23:52:44 437.675
SPROUT 28 Jul 23:51:05 23:54:01 18° 67° (ENE) 23:56:59 437.525
ESTCUBE 1 28 Jul 23:58:48 00:03:17 88° 75° (ENE) 00:07:48 437.505/2401.250
CUBEBUG 1 29 Jul 00:03:59 00:08:14 66° 75° (ENE) 00:12:32 437.445
VELOX 1 29 Jul 00:07:38 00:11:58 63° 74° (ENE) 00:16:19 145.980
Cosmos 2491 29 Jul 00:18:48 00:24:28 19° 296° (WNW) 00:30:10 435.465 / 435.565
ANTELSAT 29 Jul 00:20:22 00:24:36 37° 289° (WNW) 00:28:44 437.575/2403.000
NANOSAT C BR1 29 Jul 00:28:10 00:32:10 37° 98° (E) 00:36:07 145.865
DUCHIFAT 1 29 Jul 00:31:30 00:35:30 38° 98° (E) 00:39:27 145.980
BUGSAT 1 29 Jul 00:38:51 00:42:01 20° 94° (E) 00:45:10 437.445
50 SAT 29 Jul 00:39:06 00:42:37 44° 260° (W) 00:46:08 437.505
TISAT 1 29 Jul 00:40:13 00:42:36 15° 65° (ENE) 00:45:01 437.305
DX 1 29 Jul 00:45:42 00:49:59 65° 258° (WSW) 00:54:19 434.975-435.025
QB50P1 29 Jul 00:51:30 00:55:48 77° 102° (ESE) 01:00:04 145.935-145.965
AISAT 29 Jul 00:53:04 00:57:07 37° 262° (W) 01:01:13 437.250
UKube-1 29 Jul 00:55:46 01:00:01 64° 258° (WSW) 01:04:18 .
POPSAT HIP 1 29 Jul 00:58:08 01:02:27 90° 109° (ESE) 01:06:44 437.405
TIGRISAT 29 Jul 01:02:45 01:05:25 15° 296° (WNW) 01:08:02 435.000
GONETS M04 29 Jul 01:07:13 01:11:15 14° 60° (ENE) 01:15:15
AIST 1 29 Jul 01:12:05 01:16:26 74° 264° (W) 01:20:47
QB50P2 29 Jul 01:19:44 01:23:52 46° 287° (WNW) 01:27:57 145.880/145.840
POLYITAN 1 29 Jul 01:22:24 01:26:31 46° 287° (WNW) 01:30:35 437.675
SPROUT 29 Jul 01:25:44 01:29:41 36° 262° (W) 01:33:39 437.525
Oscar 19 29 Jul 01:29:23 01:31:37 13° 90° (E) 01:33:52 437.125/150
JAS-2 29 Jul 01:29:36 01:34:52 53° 101° (E) 01:40:37 435.910
SWISSCUBE 29 Jul 01:34:58 01:37:34 15° 63° (ENE) 01:40:09 437.505
VELOX 1 29 Jul 01:47:56 01:48:49 10° 270° (W) 01:49:42 145.980
BEESAT 29 Jul 01:55:00 01:58:33 21° 66° (ENE) 02:02:06 436.000
NANOSAT C BR1 29 Jul 02:04:43 02:07:34 18° 294° (WNW) 02:10:26 145.865
DUCHIFAT 1 29 Jul 02:08:03 02:10:52 17° 294° (WNW) 02:13:40 145.980
BUGSAT 1 29 Jul 02:13:37 02:17:25 32° 289° (WNW) 02:21:11 437.445
TISAT 1 29 Jul 02:13:51 02:17:52 44° 261° (W) 02:21:55 437.305
ITUPSAT 1 29 Jul 02:18:30 02:22:51 35° 70° (ENE) 02:27:11 437.325
Cosmos 2499 29 Jul 02:22:03 02:28:28 27° 69° (ENE) 02:34:31 435.465 / 435.565
JUGNU 29 Jul 02:43:14 02:45:00 11° 177° (S) 02:46:47 437.505
ISS 29 Jul 02:46:22 02:48:58 21° 26° (NNE) 02:51:33 145.825
GONETS M04 29 Jul 03:00:54 03:09:44 73° 81° (E) 03:18:34
Gurwin Techsat 1B 29 Jul 03:03:05 03:08:14 48° 99° (E) 03:13:20 435.225
Oscar 19 29 Jul 03:06:15 03:11:24 70° 286° (WNW) 03:16:34 437.125/150
ITAMSAT 1 29 Jul 03:07:21 03:10:26 16° 92° (E) 03:13:31 435.822/435.867
KKS-1 29 Jul 03:07:52 03:09:47 13° 63° (ENE) 03:11:43 437.445
SWISSCUBE 29 Jul 03:10:07 03:14:50 60° 259° (W) 03:19:35 437.505
JAS-2 29 Jul 03:15:57 03:19:38 19° 295° (WNW) 03:23:32 435.910
DANDE 29 Jul 03:30:12 03:31:44 11° 92° (E) 03:33:11 436.750
BEESAT 3 29 Jul 03:30:44 03:34:40 61° 56° (ENE) 03:38:35 437.485
BEESAT 29 Jul 03:31:34 03:36:02 40° 261° (W) 03:40:33 436.000
STARS 29 Jul 03:40:34 03:42:51 14° 64° (ENE) 03:45:09 437.465
BEESAT 2 29 Jul 03:41:00 03:44:49 41° 54° (NE) 03:48:35 435.950
AO-7 29 Jul 03:50:03 03:56:22 23° 94° (E) 04:02:36 29.400- 29.500
MOZHAYETS 4 29 Jul 03:54:13 03:58:34 42° 72° (ENE) 04:02:57
ITUPSAT 1 29 Jul 03:56:56 04:00:43 23° 265° (W) 04:04:31 437.325
PCSat 29 Jul 04:10:25 04:15:23 35° 54° (NE) 04:20:19 145.827
Cosmos 2499 29 Jul 04:14:33 04:21:58 52° 270° (W) 04:28:53 435.465 / 435.565
ISS 29 Jul 04:22:24 04:25:34 49° 223° (SW) 04:28:43 145.825
CUSAT 1 29 Jul 04:28:09 04:32:08 51° 280° (W) 04:35:16 437.405
JUGNU 29 Jul 04:32:13 04:33:05 10° 187° (S) 04:33:56 437.505
KKS-1 29 Jul 04:41:26 04:45:48 61° 258° (WSW) 04:50:14 437.445
Gurwin Techsat 1B 29 Jul 04:43:55 04:47:48 21° 296° (WNW) 04:51:42 435.225
ITAMSAT 1 29 Jul 04:45:10 04:50:15 57° 288° (WNW) 04:55:18 435.822/435.867
GONETS M04 29 Jul 04:59:21 05:05:36 22° 280° (W) 05:11:51
SRMSAT 29 Jul 05:03:58 05:05:39 11° 177° (S) 05:07:20 437.500
DANDE 29 Jul 05:08:55 05:14:26 61° 279° (W) 05:18:32 436.750
BEESAT 3 29 Jul 05:11:23 05:11:47 10° 253° (WSW) 05:12:12 437.485
STARS 29 Jul 05:14:27 05:18:44 53° 260° (W) 05:23:04 437.465
CUBESAT XI-V 29 Jul 05:19:19 05:23:36 40° 72° (ENE) 05:27:55 437.345
BEESAT 2 29 Jul 05:19:52 05:22:17 16° 250° (WSW) 05:24:43 435.950
RS-15 29 Jul 05:21:46 05:29:30 21° 99° (E) 05:37:26 29.354- 29.394
MOZHAYETS 4 29 Jul 05:32:47 05:35:54 18° 267° (W) 05:39:01
AO-7 29 Jul 05:41:26 05:49:45 72° 291° (WNW) 05:57:59 29.400- 29.500
PCSat 29 Jul 05:53:57 05:58:39 31° 251° (WSW) 06:03:20 145.827
HORYU 2 29 Jul 05:57:44 06:02:01 44° 99° (E) 06:06:15 437.375
AIST 2 29 Jul 05:59:09 06:03:17 58° 57° (ENE) 06:07:23 435.215
O/OREOS (USA 219) 29 Jul 06:04:06 06:08:00 27° 61° (ENE) 06:11:52 437.305
Cubesat XI-IV 29 Jul 06:18:46 06:20:39 12° 90° (E) 06:22:31 437.490
LilacSat-2 29 Jul 06:30:45 06:32:09 12° 91° (E) 06:33:33 437.200
GOMX 1 29 Jul 06:32:49 06:35:49 15° 91° (E) 06:38:53 467.674
CUTE-I 29 Jul 06:40:01 06:43:55 20° 93° (E) 06:47:47 437.470
NOAA 15 29 Jul 06:52:18 06:57:08 35° 98° (E) 07:01:56 137.62
SRMSAT 29 Jul 06:53:32 06:53:53 10° 187° (S) 06:54:13 437.500
CUBESAT XI-V 29 Jul 06:57:56 07:01:08 18° 267° (W) 07:04:20 437.345
BRITE-PL 29 Jul 07:18:06 07:23:03 89° 112° (ESE) 07:28:24 437.365/2234.400
RS-15 29 Jul 07:28:40 07:40:07 89° 119° (ESE) 07:52:16 29.354- 29.394
NOAA 18 29 Jul 07:33:34 07:39:05 64° 103° (ESE) 07:44:32 137.9125
HORYU 2 29 Jul 07:35:20 07:38:11 17° 295° (WNW) 07:41:01 437.375
AO-7 29 Jul 07:36:36 07:41:03 16° 311° (NW) 07:45:31 29.400- 29.500
AIST 2 29 Jul 07:39:39 07:41:14 12° 252° (WSW) 07:42:51 435.215
STRAND 1 29 Jul 07:40:30 07:45:37 75° 75° (ENE) 07:50:47 437.568
O/OREOS (USA 219) 29 Jul 07:43:29 07:47:18 27° 257° (WSW) 07:51:08 437.305
CINEMA 3 29 Jul 07:49:37 07:50:53 11° 88° (E) 07:52:09 145.822/145.860
DOVE 4 29 Jul 07:51:04 07:56:01 42° 98° (E) 08:01:02 437.250
Cubesat XI-IV 29 Jul 07:55:55 08:01:17 78° 286° (WNW) 08:06:35 437.490
SO-50 29 Jul 07:57:29 08:02:15 57° 117° (ESE) 08:07:02 436.795
LilacSat-2 29 Jul 08:02:59 08:06:40 43° 287° (WNW) 08:10:19 437.200
GOMX 1 29 Jul 08:09:06 08:14:11 63° 285° (WNW) 08:19:30 467.674
CUTE-I 29 Jul 08:19:04 08:24:10 47° 289° (WNW) 08:29:14 437.470
CANX-2 29 Jul 08:27:16 08:30:32 22° 94° (E) 08:33:46 2200.000
Cosmos 2491 29 Jul 08:29:58 08:38:07 41° 74° (ENE) 08:46:15 435.465 / 435.565
NOAA 15 29 Jul 08:32:21 08:36:44 27° 293° (WNW) 08:41:06 137.62
CUTE 1.7 + AOD 2 29 Jul 08:40:01 08:43:33 26° 96° (E) 08:47:04 437.475
HO-68 29 Jul 08:42:14 08:48:50 37° 98° (E) 08:55:21 435.675
CUBEBUG 2 29 Jul 08:42:36 08:42:47 10° 88° (E) 08:42:58 437.445
PRISM 29 Jul 08:50:42 08:54:36 48° 73° (ENE) 08:58:32 437.425
BRITE-PL 29 Jul 08:59:54 09:00:55 11° 297° (WNW) 09:01:57 437.365/2234.400
SEEDS 29 Jul 09:14:36 09:18:37 46° 99° (E) 09:22:37 437.485
NOAA 18 29 Jul 09:15:38 09:19:10 18° 299° (WNW) 09:22:43 137.9125
COMPASS 1 29 Jul 09:22:09 09:26:01 38° 98° (E) 09:29:52 437.405
STRAND 1 29 Jul 09:23:30 09:25:18 12° 270° (W) 09:27:07 437.568
CINEMA 3 29 Jul 09:23:30 09:28:33 78° 284° (WNW) 09:33:29 145.822/145.860
DOVE 4 29 Jul 09:29:21 09:33:24 24° 293° (WNW) 09:37:32 437.250
SO-50 29 Jul 09:39:30 09:43:05 20° 315° (NW) 09:46:40 436.795
FUNcube-1 29 Jul 09:42:14 09:45:23 19° 93° (E) 09:48:28 145.935
ANTELSAT 29 Jul 09:42:24 09:45:17 17° 65° (ENE) 09:48:13 437.575/2403.000
ZACube-1 29 Jul 09:44:17 09:47:42 21° 94° (E) 09:51:03 437.345
RS-15 29 Jul 09:44:18 09:54:22 32° 326° (NW) 10:04:54 29.354- 29.394
AAUSAT CUBESAT 2 29 Jul 09:48:00 09:52:05 62° 101° (E) 09:56:08 437.432
UWE-3 29 Jul 09:48:24 09:52:40 37° 97° (E) 09:56:48 435.000/436.395/437.385
YUBILEINY 29 Jul 09:55:13 10:03:48 62° 91° (E) 10:12:28 435.215
CANX-2 29 Jul 10:02:45 10:06:22 28° 290° (WNW) 10:09:58 2200.000
Cosmos 2504 29 Jul 10:11:38 10:18:38 27° 82° (E) 10:25:36 435.465 / 435.565
CUBEBUG 2 29 Jul 10:15:13 10:19:55 73° 285° (WNW) 10:24:27 437.445
CUTE 1.7 + AOD 2 29 Jul 10:15:55 10:19:17 24° 291° (WNW) 10:22:38 437.475
Oscar 11 29 Jul 10:20:34 10:24:49 56° 100° (E) 10:29:02 145.826/435.025
TIGRISAT 29 Jul 10:21:41 10:25:59 39° 71° (ENE) 10:30:21 435.000
Cosmos 2491 29 Jul 10:26:53 10:34:53 42° 273° (W) 10:42:55 435.465 / 435.565
PRISM 29 Jul 10:28:37 10:30:10 12° 268° (W) 10:31:44 437.425
HO-68 29 Jul 10:29:55 10:36:30 40° 295° (WNW) 10:43:03 435.675
UNISAT 6 29 Jul 10:38:32 10:43:07 64° 74° (ENE) 10:47:47 437.425
HUMSAT D 29 Jul 10:38:41 10:41:25 17° 93° (E) 10:44:06 437.325/437.525
SEEDS 29 Jul 10:51:46 10:53:54 14° 294° (WNW) 10:56:03 437.485
COMPASS 1 29 Jul 10:58:42 11:01:15 16° 293° (WNW) 11:03:48 437.405
M-CUBED/EXP-1 PRIME 29 Jul 11:00:07 11:04:30 37° 102° (ESE) 11:08:48 437.505
ANTELSAT 29 Jul 11:17:04 11:21:33 50° 261° (W) 11:26:08 437.575/2403.000
FUNcube-1 29 Jul 11:17:40 11:21:44 36° 289° (WNW) 11:25:42 145.935
NANOSAT C BR1 29 Jul 11:19:20 11:22:44 24° 69° (ENE) 11:26:10 145.865
ZACube-1 29 Jul 11:20:03 11:24:01 32° 290° (WNW) 11:27:53 437.345
DUCHIFAT 1 29 Jul 11:22:24 11:25:49 24° 69° (ENE) 11:29:15 145.980
AUBIESAT-1 29 Jul 11:24:00 11:28:35 54° 105° (ESE) 11:33:03 437.475
UWE-3 29 Jul 11:25:31 11:28:49 20° 294° (WNW) 11:32:03 435.000/436.395/437.385
DELFI C3 29 Jul 11:25:58 11:29:49 54° 286° (WNW) 11:33:39 145.870
AAUSAT CUBESAT 2 29 Jul 11:26:17 11:27:00 10° 296° (WNW) 11:27:43 437.432
BUGSAT 1 29 Jul 11:28:53 11:30:33 12° 64° (ENE) 11:32:12 437.445
QB50P1 29 Jul 11:42:25 11:46:29 46° 73° (ENE) 11:50:35 145.935-145.965
JAS-2 29 Jul 11:42:33 11:46:34 20° 65° (ENE) 11:50:21 435.910
POPSAT HIP 1 29 Jul 11:49:01 11:53:09 55° 74° (ENE) 11:57:21 437.405
ESTCUBE 1 29 Jul 11:53:22 11:56:41 20° 94° (E) 11:59:59 437.505/2401.250
YUBILEINY 29 Jul 11:53:55 12:01:08 28° 291° (WNW) 12:08:27 435.215
CUBEBUG 1 29 Jul 11:55:24 11:57:36 13° 92° (E) 11:59:47 437.445
Oscar 11 29 Jul 11:58:35 12:00:27 13° 296° (WNW) 12:02:18 145.826/435.025
TIGRISAT 29 Jul 11:59:26 12:02:47 20° 267° (W) 12:06:11 435.000
VELOX 1 29 Jul 12:00:42 12:02:49 13° 92° (E) 12:04:55 145.980
Cosmos 2504 29 Jul 12:02:32 12:11:19 64° 280° (W) 12:20:05 435.465 / 435.565
RS-15 29 Jul 12:04:37 12:12:33 19° 1° (N) 12:20:35 29.354- 29.394
50 SAT 29 Jul 12:10:02 12:12:05 15° 94° (E) 12:14:08 437.505
QB50P2 29 Jul 12:10:29 12:14:44 77° 259° (W) 12:19:02 145.880/145.840
POLYITAN 1 29 Jul 12:13:07 12:17:22 75° 259° (WSW) 12:21:40 437.675
HUMSAT D 29 Jul 12:13:20 12:17:09 35° 288° (WNW) 12:20:54 437.325/437.525
UNISAT 6 29 Jul 12:18:29 12:20:14 12° 270° (W) 12:22:00 437.425
M-CUBED/EXP-1 PRIME 29 Jul 12:35:00 12:38:45 24° 298° (WNW) 12:42:29 437.505
DX 1 29 Jul 12:35:38 12:39:08 23° 96° (E) 12:42:36 434.975-435.025
AISAT 29 Jul 12:44:03 12:48:19 43° 99° (E) 12:52:34 437.250
UKube-1 29 Jul 12:44:39 12:48:05 22° 95° (E) 12:51:29 .
Oscar 19 29 Jul 12:44:43 12:48:03 18° 63° (ENE) 12:51:22 437.125/150
NANOSAT C BR1 29 Jul 12:54:46 12:58:20 26° 264° (W) 13:01:56 145.865
DUCHIFAT 1 29 Jul 12:57:51 13:01:23 26° 264° (W) 13:04:58 145.980
AUBIESAT-1 29 Jul 12:59:37 13:02:33 17° 300° (WNW) 13:05:28 437.475
BUGSAT 1 29 Jul 13:01:25 13:05:24 53° 260° (W) 13:09:29 437.445
SPROUT 29 Jul 13:12:37 13:16:42 39° 98° (E) 13:20:44 437.525
QB50P1 29 Jul 13:20:21 13:22:29 14° 268° (W) 13:24:39 145.935-145.965
JAS-2 29 Jul 13:25:27 13:31:21 54° 259° (W) 13:36:42 435.910
POPSAT HIP 1 29 Jul 13:27:47 13:29:15 12° 269° (W) 13:30:44 437.405
ESTCUBE 1 29 Jul 13:29:29 13:33:33 35° 289° (WNW) 13:37:37 437.505/2401.250
CUBEBUG 1 29 Jul 13:29:52 13:34:08 50° 287° (WNW) 13:38:25 437.445
AO-85 29 Jul 13:31:59 13:37:14 55° 117° (ESE) 13:42:19 145.980
VELOX 1 29 Jul 13:35:14 13:39:34 53° 287° (WNW) 13:43:53 145.980
AIST 1 29 Jul 13:39:46 13:43:58 69° 95° (E) 13:48:13
50 SAT 29 Jul 13:42:37 13:45:47 29° 288° (WNW) 13:48:55 437.505
TISAT 1 29 Jul 13:59:05 14:02:49 29° 97° (E) 14:06:31 437.305
Cosmos 2504 29 Jul 14:03:25 14:06:31 12° 301° (WNW) 14:09:38 435.465 / 435.565
GONETS M04 29 Jul 14:08:38 14:13:07 15° 77° (ENE) 14:17:37
DX 1 29 Jul 14:11:30 14:15:17 29° 291° (WNW) 14:19:05 434.975-435.025
RS-15 29 Jul 14:19:51 14:30:39 33° 36° (NE) 14:41:22 29.354- 29.394
UKube-1 29 Jul 14:20:21 14:24:06 29° 291° (WNW) 14:27:50 .
AISAT 29 Jul 14:21:32 14:24:26 17° 294° (WNW) 14:27:20 437.250
Oscar 19 29 Jul 14:21:54 14:26:54 54° 260° (W) 14:31:56 437.125/150
Gurwin Techsat 1B 29 Jul 14:22:47 14:28:02 67° 74° (ENE) 14:33:20 435.225
ITAMSAT 1 29 Jul 14:23:46 14:27:47 23° 65° (ENE) 14:31:48 435.822/435.867
AO-7 29 Jul 14:47:40 14:54:41 31° 58° (ENE) 15:01:42 29.400- 29.500
SPROUT 29 Jul 14:49:29 14:52:18 17° 294° (WNW) 14:55:08 437.525
Cosmos 2499 29 Jul 14:56:27 15:03:19 26° 83° (E) 15:10:03 435.465 / 435.565
CUSAT 1 29 Jul 15:00:25 15:03:36 65° 81° (E) 15:07:41 437.405
SWISSCUBE 29 Jul 15:11:40 15:16:05 37° 98° (E) 15:20:28 437.505
AO-85 29 Jul 15:13:47 15:18:01 23° 313° (NW) 15:22:05 145.980
PHONESAT 2.4 29 Jul 15:22:03 15:23:30 13° 146° (SE) 15:24:58 2401.200-2431.200
BEESAT 29 Jul 15:32:33 15:37:15 56° 101° (E) 15:41:54 436.000
TISAT 1 29 Jul 15:34:59 15:38:17 22° 292° (WNW) 15:41:34 437.305
DANDE 29 Jul 15:48:05 15:50:46 69° 82° (E) 15:53:52 436.750
MOZHAYETS 4 29 Jul 15:53:24 15:54:10 10° 90° (E) 15:54:56
ITUPSAT 1 29 Jul 15:57:23 16:02:10 82° 286° (WNW) 16:06:55 437.325
GONETS M04 29 Jul 15:59:51 16:08:32 87° 97° (E) 16:17:19
ITAMSAT 1 29 Jul 16:02:01 16:06:57 42° 261° (W) 16:11:56 435.822/435.867
Gurwin Techsat 1B 29 Jul 16:05:45 16:08:26 14° 269° (W) 16:11:08 435.225
SO-50 29 Jul 16:30:29 16:34:45 35° 51° (NE) 16:38:53 436.795
RS-15 29 Jul 16:32:24 16:44:50 87° 242° (WSW) 16:57:02 29.354- 29.394
KKS-1 29 Jul 16:33:56 16:37:47 27° 96° (E) 16:41:36 437.445
AO-7 29 Jul 16:38:43 16:46:56 60° 257° (WSW) 16:55:13 29.400- 29.500
Cosmos 2499 29 Jul 16:46:55 16:55:44 66° 280° (W) 17:04:21 435.465 / 435.565
SWISSCUBE 29 Jul 16:50:01 16:53:37 22° 294° (WNW) 16:57:13 437.505
HORYU 2 29 Jul 16:54:23 16:58:28 35° 70° (ENE) 17:02:34 437.375
PHONESAT 2.4 29 Jul 16:56:33 16:59:35 59° 161° (SSE) 17:02:37 2401.200-2431.200
STARS 29 Jul 17:05:17 17:09:11 29° 97° (E) 17:13:03 437.465
BEESAT 29 Jul 17:11:50 17:14:32 15° 297° (WNW) 17:17:14 436.000
CUBESAT XI-V 29 Jul 17:19:43 17:20:41 11° 90° (E) 17:21:39 437.345
NOAA 18 29 Jul 17:21:17 17:24:10 14° 60° (ENE) 17:27:03 137.9125
BEESAT 3 29 Jul 17:21:57 17:23:53 13° 109° (ESE) 17:25:51 437.485
MOZHAYETS 4 29 Jul 17:27:13 17:31:46 68° 286° (WNW) 17:36:17
Cubesat XI-IV 29 Jul 17:38:37 17:42:21 20° 63° (ENE) 17:46:05 437.490
GOMX 1 29 Jul 17:42:09 17:43:11 11° 62° (ENE) 17:44:13 467.674
CUTE-I 29 Jul 18:00:18 18:04:57 30° 67° (ENE) 18:09:35 437.470
GONETS M04 29 Jul 18:00:51 18:06:31 19° 296° (WNW) 18:12:14
KKS-1 29 Jul 18:10:31 18:14:15 26° 292° (WNW) 18:17:57 437.445
NOAA 15 29 Jul 18:11:01 18:16:04 50° 71° (ENE) 18:21:08 137.62
SO-50 29 Jul 18:11:21 18:15:01 24° 249° (WSW) 18:18:36 436.795
BRITE-PL 29 Jul 18:28:30 18:32:39 88° 75° (ENE) 18:36:51 437.365/2234.400
HORYU 2 29 Jul 18:31:47 18:35:05 20° 266° (W) 18:38:24 437.375
PHONESAT 2.4 29 Jul 18:33:04 18:36:07 61° 357° (N) 18:39:11 2401.200-2431.200
